sat.trackr.live / text

‹ back to catalog

YAOGAN-31 01C

NORAD 43277 · 2018-034C

PAYLOAD ACTIVE UNKNOWN

§ Identity

Operator
Country
PRC
Launch date
2018-04-10
Launch site
JSC
Launch vehicle
Mass (kg)
RCS (m²)

External: N2YO · Heavens-Above · Gunter

§ Orbital elements

Epoch: 2026-09-20T04:51:36.737856Z

Period
107.03 min
Inclination
63.3944°
Eccentricity
0.0283934
Mean motion
13.45450557 rev/d
Perigee alt
877.0 km
Apogee alt
1,301.1 km
Semi-major
7,467.2 km
B*
1.3307e-4
RAAN
206.1655°
Arg perigee
7.4135°
Mean anomaly
353.0956°
Rev number
41,502

§ Raw data

YAOGAN-31 01C1 43277U 18034C   26263.20250854  .00000010  00000+0  13307-3 0  99912 43277  63.3944 206.1655 0283934   7.4135 353.0956 13.45450557415020

JSON: /api/v1/satellites/43277 · /tle

For live sub-satellite position, see the globe view (requires WebGL).

§ Visibility from observer

Set your observer location to see the next 7 days of passes ≥ 10°. The values pass through the URL so the page stays shareable.

No JS? Fill the form by hand. The geolocation button needs JavaScript.